This demonstration page uses our WeatherBlox Daily Observations layout. Learn more.

Left ArrowRight Arrow

Hourly Observations for November 25, 2019

Temp ( °F °C ) Dew Point ( °F °C ) Humidity (%) Winds ( mph kmh ) Pressure ( in mb ) Visibility ( mi km ) Precip ( " mm )
12:53 am 00:53 Clear 42 5.6 29 -1.7 60 60 WNW 7 11 29.61 1003 10 16 0.00 0.00
1:53 am 01:53 Clear 39 3.9 28 -2.2 65 65 W 6 9 29.59 1002 10 16 0.00 0.00
2:53 am 02:53 Clear 37 2.8 27 -2.8 67 67 WNW 9 15 29.62 1003 10 16 0.00 0.00
3:53 am 03:53 Clear 40 4.4 27 -2.8 60 60 NNW 13 20 29.62 1003 10 16 0.00 0.00
4:53 am 04:53 Clear 40 4.4 28 -2.2 63 63 NNW 14 22 29.65 1004 10 16 0.00 0.00
5:53 am 05:53 Clear 40 4.4 29 -1.7 65 65 NNW 14 22 29.69 1006 10 16 0.00 0.00
6:53 am 06:53 Clear 38 3.3 29 -1.7 70 70 NNW 13 20 29.73 1007 10 16 0.00 0.00
7:53 am 07:53 Sunny 36 2.2 28 -2.2 73 73 NNW 8 13 29.76 1008 10 16 0.00 0.00
8:53 am 08:53 Sunny 37 2.8 29 -1.7 73 73 NW 9 15 29.78 1009 10 16 0.00 0.00
9:53 am 09:53 Mostly Sunny 44 6.7 30 -1.1 58 58 NNW 12 19 29.79 1009 10 16 0.00 0.00
10:53 am 10:53 Sunny 50 10 28 -2.2 43 43 N 16 26 29.78 1009 10 16 0.00 0.00
11:53 am 11:53 Sunny 49 9.4 27 -2.8 43 43 N 14 22 29.77 1008 10 16 0.00 0.00
12:53 pm 12:53 Sunny 52 11.1 22 -5.6 31 31 N 16 26 29.74 1007 10 16 0.00 0.00
1:53 pm 13:53 Sunny 53 11.7 21 -6.1 28 28 N 15 24 29.73 1007 10 16 0.00 0.00
2:53 pm 14:53 Sunny 53 11.7 20 -6.7 27 27 N 12 19 29.72 1007 10 16 0.00 0.00
3:53 pm 15:53 Sunny 51 10.6 20 -6.7 29 29 NNE 13 20 29.72 1006 10 16 0.00 0.00
4:53 pm 16:53 Sunny 44 6.7 22 -5.6 41 41 N 8 13 29.75 1007 10 16 0.00 0.00
5:53 pm 17:53 Clear 40 4.4 24 -4.4 53 53 NNE 3 6 29.78 1008 10 16 0.00 0.00
6:53 pm 18:53 Clear 40 4.4 25 -3.9 55 55 NE 5 7 29.79 1009 10 16 0.00 0.00
7:53 pm 19:53 Clear 40 4.4 25 -3.9 55 55 NE 9 15 29.78 1008 10 16 0.00 0.00
8:53 pm 20:53 Clear 38 3.3 26 -3.3 62 62 NE 6 9 29.79 1009 10 16 0.00 0.00
9:53 pm 21:53 Clear 39 3.9 26 -3.3 60 60 NE 10 17 29.77 1008 10 16 0.00 0.00
10:53 pm 22:53 Clear 36 2.2 26 -3.3 67 67 ENE 7 11 29.77 1008 10 16 0.00 0.00
11:53 pm 23:53 Clear 33 0.6 25 -3.9 72 72 ENE 6 9 29.77 1008 10 16 0.00 0.00

Powered by AerisWeather